Time,TemperatureF,DewpointF,PressureIn,WindDirection,WindDirectionDegrees,WindSpeedMPH,WindSpeedGustMPH,Humidity,HourlyPrecipIn,Conditions,Clouds,dailyrainin,SoftwareType,DateUTC
2013-07-13 00:00:00,69.4,58.0,29.94,SSE,150,9.0,14.0,67,0.00,,FEW090,0.00,VWS V14.01,2013-07-13 05:00:00,
2013-07-13 00:02:00,69.4,58.0,29.95,SE,142,6.0,9.0,67,0.00,,CLR,0.00,VWS V14.01,2013-07-13 05:02:00,
2013-07-13 00:07:00,69.2,58.2,29.95,SE,141,9.0,11.0,68,0.00,,CLR,0.00,VWS V14.01,2013-07-13 05:07:00,
2013-07-13 00:12:00,69.0,58.0,29.94,SE,139,7.0,11.0,68,0.00,,CLR,0.00,VWS V14.01,2013-07-13 05:12:00,
2013-07-13 00:17:00,68.9,58.3,29.95,SSE,156,7.0,11.0,69,0.00,,CLR,0.00,VWS V14.01,2013-07-13 05:17:00,
2013-07-13 00:22:00,68.9,58.3,29.95,SE,134,8.0,11.0,69,0.00,,CLR,0.00,VWS V14.01,2013-07-13 05:22:00,
2013-07-13 00:27:00,68.8,58.2,29.96,SSE,150,5.0,11.0,69,0.00,,CLR,0.00,VWS V14.01,2013-07-13 05:27:00,
2013-07-13 00:30:00,68.8,58.2,29.96,SSW,195,4.0,11.0,69,0.00,,FEW090,0.00,VWS V14.01,2013-07-13 05:30:00,
2013-07-13 00:32:00,68.6,58.0,29.96,South,172,4.0,5.0,69,0.00,,CLR,0.00,VWS V14.01,2013-07-13 05:32:00,
2013-07-13 00:37:00,68.4,58.2,29.96,SSE,150,4.0,8.0,70,0.00,,CLR,0.00,VWS V14.01,2013-07-13 05:37:00,
2013-07-13 00:42:00,68.2,58.0,29.95,SSE,156,6.0,9.0,70,0.00,,CLR,0.00,VWS V14.01,2013-07-13 05:42:00,
2013-07-13 00:47:00,68.0,57.9,29.95,SSE,167,6.0,9.0,70,0.00,,CLR,0.00,VWS V14.01,2013-07-13 05:47:00,
2013-07-13 00:52:00,67.9,58.2,29.96,SSE,160,4.0,9.0,71,0.00,,CLR,0.00,VWS V14.01,2013-07-13 05:52:00,
2013-07-13 00:57:00,68.0,57.9,29.96,South,188,2.0,9.0,70,0.00,,CLR,0.00,VWS V14.01,2013-07-13 05:57:00,
2013-07-13 01:00:00,68.0,57.9,29.96,South,177,3.0,9.0,70,0.00,,FEW090,0.00,VWS V14.01,2013-07-13 06:00:00,
2013-07-13 01:02:00,68.0,57.9,29.95,SE,145,4.0,6.0,70,0.00,,CLR,0.00,VWS V14.01,2013-07-13 06:02:00,
2013-07-13 01:06:00,68.0,57.9,29.96,SSE,160,3.0,7.0,70,0.00,,CLR,0.00,VWS V14.01,2013-07-13 06:06:00,
2013-07-13 01:11:00,68.0,57.9,29.96,SE,146,3.0,7.0,70,0.00,,CLR,0.00,VWS V14.01,2013-07-13 06:11:00,
2013-07-13 01:16:00,68.1,57.6,29.96,South,177,3.0,7.0,69,0.00,,CLR,0.00,VWS V14.01,2013-07-13 06:16:00,
2013-07-13 01:21:00,68.1,57.6,29.95,SE,138,3.0,7.0,69,0.00,,CLR,0.00,VWS V14.01,2013-07-13 06:21:00,
2013-07-13 01:26:00,68.2,57.7,29.95,SE,146,4.0,8.0,69,0.00,,CLR,0.00,VWS V14.01,2013-07-13 06:26:00,
2013-07-13 01:30:00,68.1,57.6,29.95,SSE,152,5.0,8.0,69,0.00,,FEW090,0.00,VWS V14.01,2013-07-13 06:30:00,
2013-07-13 01:31:00,68.1,57.6,29.95,SSE,161,5.0,5.0,69,0.00,,CLR,0.00,VWS V14.01,2013-07-13 06:31:00,
2013-07-13 01:36:00,68.1,57.6,29.95,SE,141,5.0,8.0,69,0.00,,CLR,0.00,VWS V14.01,2013-07-13 06:36:00,
2013-07-13 01:41:00,68.0,57.5,29.94,SE,137,5.0,9.0,69,0.00,,CLR,0.00,VWS V14.01,2013-07-13 06:41:00,
2013-07-13 01:46:00,67.9,57.4,29.94,SE,146,2.0,9.0,69,0.00,,CLR,0.00,VWS V14.01,2013-07-13 06:46:00,
2013-07-13 01:51:00,67.9,57.4,29.94,SE,138,6.0,9.0,69,0.00,,CLR,0.00,VWS V14.01,2013-07-13 06:51:00,
2013-07-13 01:56:00,68.0,57.1,29.94,SSE,150,7.0,9.0,68,0.00,,CLR,0.00,VWS V14.01,2013-07-13 06:56:00,
2013-07-13 02:00:00,68.0,57.1,29.93,SSE,158,4.0,9.0,68,0.00,,FEW090,0.00,VWS V14.01,2013-07-13 07:00:00,
2013-07-13 02:01:00,68.0,57.1,29.93,South,183,5.0,5.0,68,0.00,,CLR,0.00,VWS V14.01,2013-07-13 07:01:00,
2013-07-13 02:06:00,68.0,56.7,29.93,SSE,162,7.0,7.0,67,0.00,,CLR,0.00,VWS V14.01,2013-07-13 07:06:00,
2013-07-13 02:11:00,68.3,56.9,29.93,SSW,198,7.0,10.0,67,0.00,,CLR,0.00,VWS V14.01,2013-07-13 07:11:00,
2013-07-13 02:16:00,68.5,56.7,29.93,SSE,150,9.0,11.0,66,0.00,,CLR,0.00,VWS V14.01,2013-07-13 07:16:00,
2013-07-13 02:21:00,68.5,56.7,29.93,South,184,5.0,11.0,66,0.00,,CLR,0.00,VWS V14.01,2013-07-13 07:21:00,
2013-07-13 02:26:00,68.4,56.6,29.93,SE,136,6.0,11.0,66,0.00,,CLR,0.00,VWS V14.01,2013-07-13 07:26:00,
2013-07-13 02:30:00,68.4,56.6,29.93,SW,226,4.0,11.0,66,0.00,,FEW090,0.00,VWS V14.01,2013-07-13 07:30:00,
2013-07-13 02:31:00,68.4,56.6,29.93,SSE,149,6.0,8.0,66,0.00,,CLR,0.00,VWS V14.01,2013-07-13 07:31:00,
2013-07-13 02:36:00,68.3,56.5,29.93,SE,142,7.0,8.0,66,0.00,,CLR,0.00,VWS V14.01,2013-07-13 07:36:00,
2013-07-13 02:41:00,68.2,56.4,29.94,SE,131,6.0,10.0,66,0.00,,CLR,0.00,VWS V14.01,2013-07-13 07:41:00,
2013-07-13 02:46:00,68.1,56.3,29.94,SE,125,6.0,10.0,66,0.00,,CLR,0.00,VWS V14.01,2013-07-13 07:46:00,
2013-07-13 02:51:00,67.9,56.5,29.94,SSE,153,4.0,10.0,67,0.00,,CLR,0.00,VWS V14.01,2013-07-13 07:51:00,
2013-07-13 02:56:00,67.8,56.5,29.94,ESE,120,5.0,10.0,67,0.00,,CLR,0.00,VWS V14.01,2013-07-13 07:56:00,
2013-07-13 03:00:00,67.7,56.4,29.94,SE,126,5.0,10.0,67,0.00,,FEW090,0.00,VWS V14.01,2013-07-13 08:00:00,
2013-07-13 03:01:00,67.7,56.4,29.94,SE,125,5.0,8.0,67,0.00,,CLR,0.00,VWS V14.01,2013-07-13 08:01:00,
2013-07-13 03:06:00,67.6,56.3,29.95,SSE,148,4.0,9.0,67,0.00,,CLR,0.00,VWS V14.01,2013-07-13 08:06:00,
2013-07-13 03:11:00,67.6,56.3,29.95,SSE,155,5.0,9.0,67,0.00,,CLR,0.00,VWS V14.01,2013-07-13 08:11:00,
2013-07-13 03:16:00,67.5,56.2,29.94,SSE,161,7.0,10.0,67,0.00,,CLR,0.00,VWS V14.01,2013-07-13 08:16:00,
2013-07-13 03:21:00,67.6,56.3,29.94,SSE,167,8.0,10.0,67,0.00,,CLR,0.00,VWS V14.01,2013-07-13 08:21:00,
2013-07-13 03:26:00,67.6,56.3,29.94,SSE,166,7.0,10.0,67,0.00,,CLR,0.00,VWS V14.01,2013-07-13 08:26:00,
2013-07-13 03:30:00,67.5,56.2,29.93,SE,146,7.0,11.0,67,0.00,,FEW090,0.00,VWS V14.01,2013-07-13 08:30:00,
2013-07-13 03:31:00,67.5,56.2,29.93,SE,143,8.0,10.0,67,0.00,,CLR,0.00,VWS V14.01,2013-07-13 08:31:00,
2013-07-13 03:36:00,67.5,56.2,29.93,SE,140,6.0,11.0,67,0.00,,CLR,0.00,VWS V14.01,2013-07-13 08:36:00,
2013-07-13 03:41:00,67.6,56.3,29.93,SSE,158,9.0,12.0,67,0.00,,CLR,0.00,VWS V14.01,2013-07-13 08:41:00,
2013-07-13 03:46:00,67.7,56.0,29.93,SSE,162,9.0,13.0,66,0.00,,CLR,0.00,VWS V14.01,2013-07-13 08:46:00,
2013-07-13 03:51:00,67.8,56.0,29.92,SSE,150,8.0,15.0,66,0.00,,CLR,0.00,VWS V14.01,2013-07-13 08:51:00,
2013-07-13 03:56:00,67.8,56.0,29.92,SSE,155,10.0,15.0,66,0.00,,FEW110,0.00,VWS V14.01,2013-07-13 08:56:00,
2013-07-13 04:00:00,67.8,56.0,29.92,SSE,153,11.0,15.0,66,0.00,,FEW090,0.00,VWS V14.01,2013-07-13 09:00:00,
2013-07-13 04:01:00,67.9,56.1,29.92,SSE,152,9.0,13.0,66,0.00,,FEW110,0.00,VWS V14.01,2013-07-13 09:01:00,
2013-07-13 04:06:00,68.0,55.8,29.92,SE,144,10.0,13.0,65,0.00,,FEW110,0.00,VWS V14.01,2013-07-13 09:06:00,
2013-07-13 04:11:00,67.9,55.7,29.92,SE,133,9.0,13.0,65,0.00,,FEW110,0.00,VWS V14.01,2013-07-13 09:11:00,
2013-07-13 04:16:00,67.9,56.1,29.92,SE,131,8.0,13.0,66,0.00,,FEW110,0.00,VWS V14.01,2013-07-13 09:16:00,
2013-07-13 04:21:00,67.9,56.1,29.92,SSE,152,9.0,13.0,66,0.00,,FEW110,0.00,VWS V14.01,2013-07-13 09:21:00,
2013-07-13 04:26:00,67.8,56.0,29.93,ESE,113,9.0,13.0,66,0.00,,FEW110,0.00,VWS V14.01,2013-07-13 09:26:00,
2013-07-13 04:30:00,67.8,56.0,29.93,SE,134,8.0,13.0,66,0.00,,FEW090,0.00,VWS V14.01,2013-07-13 09:30:00,
2013-07-13 04:31:00,67.8,56.0,29.93,SSE,152,9.0,10.0,66,0.00,,FEW110,0.00,VWS V14.01,2013-07-13 09:31:00,
2013-07-13 04:36:00,67.8,56.0,29.93,SSE,158,6.0,13.0,66,0.00,,FEW110,0.00,VWS V14.01,2013-07-13 09:36:00,
2013-07-13 04:41:00,67.8,55.6,29.93,SE,142,5.0,13.0,65,0.00,,FEW110,0.00,VWS V14.01,2013-07-13 09:41:00,
2013-07-13 04:46:00,67.9,55.7,29.93,SSE,162,8.0,13.0,65,0.00,,FEW110,0.00,VWS V14.01,2013-07-13 09:46:00,
2013-07-13 04:51:00,67.9,55.7,29.93,SSE,155,6.0,13.0,65,0.00,,FEW110,0.00,VWS V14.01,2013-07-13 09:51:00,
2013-07-13 04:56:00,67.8,56.0,29.93,SSE,153,5.0,13.0,66,0.00,,FEW110,0.00,VWS V14.01,2013-07-13 09:56:00,
2013-07-13 05:00:00,67.7,56.0,29.93,SE,134,6.0,13.0,66,0.00,,FEW090,0.00,VWS V14.01,2013-07-13 10:00:00,
2013-07-13 05:01:00,67.7,56.0,29.93,SE,131,6.0,7.0,66,0.00,,SCT110,0.00,VWS V14.01,2013-07-13 10:01:00,
2013-07-13 05:06:00,67.6,55.8,29.93,SE,132,6.0,10.0,66,0.00,,SCT110,0.00,VWS V14.01,2013-07-13 10:06:00,
2013-07-13 05:11:00,67.6,55.8,29.93,SE,143,7.0,12.0,66,0.00,,SCT110,0.00,VWS V14.01,2013-07-13 10:11:00,
2013-07-13 05:16:00,67.5,55.8,29.93,South,181,4.0,13.0,66,0.00,,SCT110,0.00,VWS V14.01,2013-07-13 10:16:00,
2013-07-13 05:21:00,67.5,55.8,29.93,SSE,147,10.0,13.0,66,0.00,,SCT110,0.00,VWS V14.01,2013-07-13 10:21:00,
2013-07-13 05:26:00,67.5,55.8,29.93,SE,143,5.0,13.0,66,0.00,,SCT110,0.00,VWS V14.01,2013-07-13 10:26:00,
2013-07-13 05:30:00,67.4,55.7,29.93,SSE,149,10.0,13.0,66,0.00,,FEW090,0.00,VWS V14.01,2013-07-13 10:30:00,
2013-07-13 05:31:00,67.4,55.7,29.93,SE,133,8.0,11.0,66,0.00,,SCT110,0.00,VWS V14.01,2013-07-13 10:31:00,
2013-07-13 05:36:00,67.4,55.7,29.93,SE,139,9.0,11.0,66,0.00,,SCT110,0.00,VWS V14.01,2013-07-13 10:36:00,
2013-07-13 05:41:00,67.4,55.7,29.94,SE,129,9.0,11.0,66,0.00,,SCT110,0.00,VWS V14.01,2013-07-13 10:41:00,
2013-07-13 05:46:00,67.4,55.7,29.94,SE,134,5.0,13.0,66,0.00,,SCT110,0.00,VWS V14.01,2013-07-13 10:46:00,
2013-07-13 05:51:00,67.5,55.8,29.93,SE,145,6.0,13.0,66,0.00,,SCT110,0.00,VWS V14.01,2013-07-13 10:51:00,
2013-07-13 05:56:00,67.4,55.7,29.94,SSE,155,9.0,13.0,66,0.00,,SCT110,0.00,VWS V14.01,2013-07-13 10:56:00,
2013-07-13 06:00:00,67.6,55.8,29.94,SE,130,8.0,13.0,66,0.00,,FEW090,0.00,VWS V14.01,2013-07-13 11:00:00,
2013-07-13 06:01:00,67.6,55.8,29.94,SE,138,6.0,9.0,66,0.00,,BKN090,0.00,VWS V14.01,2013-07-13 11:01:00,
2013-07-13 06:06:00,67.6,55.4,29.94,SSE,155,9.0,12.0,65,0.00,,BKN090,0.00,VWS V14.01,2013-07-13 11:06:00,
2013-07-13 06:11:00,67.8,55.6,29.94,ESE,116,7.0,15.0,65,0.00,,BKN090,0.00,VWS V14.01,2013-07-13 11:11:00,
2013-07-13 06:16:00,67.9,55.7,29.94,SSE,162,5.0,15.0,65,0.00,,BKN090,0.00,VWS V14.01,2013-07-13 11:16:00,
2013-07-13 06:21:00,67.9,55.7,29.94,SE,143,4.0,15.0,65,0.00,,BKN090,0.00,VWS V14.01,2013-07-13 11:21:00,
2013-07-13 06:26:00,68.0,55.8,29.95,South,169,11.0,15.0,65,0.00,,BKN090,0.00,VWS V14.01,2013-07-13 11:26:00,
2013-07-13 06:30:00,68.0,55.8,29.95,SSE,155,7.0,15.0,65,0.00,,FEW090,0.00,VWS V14.01,2013-07-13 11:30:00,
2013-07-13 06:31:00,68.1,55.9,29.95,SSE,151,4.0,9.0,65,0.00,,BKN090,0.00,VWS V14.01,2013-07-13 11:31:00,
2013-07-13 06:36:00,68.0,55.8,29.95,SSE,165,7.0,11.0,65,0.00,,BKN090,0.00,VWS V14.01,2013-07-13 11:36:00,
2013-07-13 06:41:00,68.0,55.8,29.95,SE,138,8.0,13.0,65,0.00,,BKN090,0.00,VWS V14.01,2013-07-13 11:41:00,
2013-07-13 06:46:00,67.9,55.7,29.95,SSE,148,6.0,13.0,65,0.00,,BKN090,0.00,VWS V14.01,2013-07-13 11:46:00,
2013-07-13 06:51:00,67.7,56.0,29.95,SE,128,7.0,13.0,66,0.00,,BKN090,0.00,VWS V14.01,2013-07-13 11:51:00,
2013-07-13 06:56:00,67.6,56.3,29.95,SE,136,6.0,13.0,67,0.00,,BKN090,0.00,VWS V14.01,2013-07-13 11:56:00,
2013-07-13 07:03:00,67.5,56.2,29.95,SE,127,8.0,8.0,67,0.00,,BKN090,0.00,VWS V14.01,2013-07-13 12:03:00,
2013-07-13 07:08:00,67.4,56.1,29.95,SE,136,8.0,9.0,67,0.00,,FEW090,0.00,VWS V14.01,2013-07-13 12:08:00,
2013-07-13 07:13:00,67.4,56.1,29.95,SE,143,10.0,14.0,67,0.00,,FEW090,0.00,VWS V14.01,2013-07-13 12:13:00,
2013-07-13 07:17:00,67.4,56.1,29.95,SE,143,8.0,15.0,67,0.00,,FEW090,0.00,VWS V14.01,2013-07-13 12:17:00,
2013-07-13 07:22:00,67.5,56.2,29.96,SE,134,6.0,15.0,67,0.00,,FEW090,0.00,VWS V14.01,2013-07-13 12:22:00,
2013-07-13 07:27:00,67.6,56.3,29.97,SSE,152,10.0,15.0,67,0.00,,FEW090,0.00,VWS V14.01,2013-07-13 12:27:00,
2013-07-13 07:32:00,67.7,56.4,29.97,SE,124,11.0,11.0,67,0.00,,FEW090,0.00,VWS V14.01,2013-07-13 12:32:00,
2013-07-13 07:37:00,67.7,56.0,29.97,WNW,302,3.0,11.0,66,0.00,,FEW090,0.00,VWS V14.01,2013-07-13 12:37:00,
2013-07-13 07:42:00,67.7,56.0,29.98,SE,141,4.0,11.0,66,0.00,,FEW090,0.00,VWS V14.01,2013-07-13 12:42:00,
2013-07-13 07:47:00,67.7,56.4,29.97,ESE,123,7.0,11.0,67,0.00,,FEW090,0.00,VWS V14.01,2013-07-13 12:47:00,
2013-07-13 07:52:00,67.7,56.0,29.97,SE,135,7.0,11.0,66,0.00,,FEW090,0.00,VWS V14.01,2013-07-13 12:52:00,
2013-07-13 07:57:00,67.7,56.4,29.97,ESE,113,8.0,11.0,67,0.00,,FEW090,0.00,VWS V14.01,2013-07-13 12:57:00,
2013-07-13 08:02:00,67.7,56.4,29.97,ESE,122,6.0,11.0,67,0.00,,-RA,0.00,VWS V14.01,2013-07-13 13:02:00,
2013-07-13 08:07:00,67.8,56.5,29.97,SE,134,7.0,11.0,67,0.00,,-RA,0.00,VWS V14.01,2013-07-13 13:07:00,
2013-07-13 08:12:00,67.8,56.5,29.97,ESE,110,5.0,11.0,67,0.00,,-RA,0.00,VWS V14.01,2013-07-13 13:12:00,
2013-07-13 08:17:00,67.8,56.5,29.97,SSE,155,6.0,11.0,67,0.00,,-RA,0.00,VWS V14.01,2013-07-13 13:17:00,
2013-07-13 08:22:00,67.8,56.5,29.97,SE,127,5.0,11.0,67,0.00,,-RA,0.00,VWS V14.01,2013-07-13 13:22:00,
2013-07-13 08:27:00,67.6,57.1,29.98,SSE,155,3.0,11.0,69,0.00,,-RA,0.00,VWS V14.01,2013-07-13 13:27:00,
2013-07-13 08:32:00,67.0,57.7,29.98,South,169,2.0,4.0,72,0.04,,-RA,0.04,VWS V14.01,2013-07-13 13:32:00,
2013-07-13 08:37:00,66.2,58.0,29.98,SE,143,5.0,6.0,75,0.11,,-RA,0.11,VWS V14.01,2013-07-13 13:37:00,
2013-07-13 08:42:00,65.4,57.7,29.99,SE,130,6.0,7.0,76,0.13,,-RA,0.13,VWS V14.01,2013-07-13 13:42:00,
2013-07-13 08:47:00,65.3,57.9,29.98,SE,134,2.0,8.0,77,0.13,,-RA,0.13,VWS V14.01,2013-07-13 13:47:00,
2013-07-13 08:52:00,64.9,58.2,29.98,SE,136,3.0,8.0,79,0.13,,-RA,0.13,VWS V14.01,2013-07-13 13:52:00,
2013-07-13 08:57:00,64.6,58.7,29.99,East,79,2.0,8.0,81,0.13,,-RA,0.13,VWS V14.01,2013-07-13 13:57:00,
2013-07-13 09:02:00,63.9,59.3,29.99,ESE,116,1.0,2.0,85,0.13,, +RA,0.13,VWS V14.01,2013-07-13 14:02:00,
2013-07-13 09:07:00,63.4,59.2,30.00,ENE,64,3.0,7.0,86,0.13,, +RA,0.13,VWS V14.01,2013-07-13 14:07:00,
2013-07-13 09:12:00,63.4,59.2,30.00,ESE,116,3.0,9.0,86,0.13,, +RA,0.13,VWS V14.01,2013-07-13 14:12:00,
2013-07-13 09:17:00,63.9,58.3,30.00,ESE,106,7.0,11.0,82,0.13,,OVC110,0.13,VWS V14.01,2013-07-13 14:17:00,
2013-07-13 09:22:00,64.1,58.8,30.01,NE,52,0.0,11.0,83,0.13,,OVC110,0.13,VWS V14.01,2013-07-13 14:22:00,
2013-07-13 09:27:00,63.6,59.3,30.01,ENE,68,1.0,11.0,86,0.13,,OVC110,0.13,VWS V14.01,2013-07-13 14:27:00,
2013-07-13 09:32:00,63.1,58.8,30.00,SE,126,4.0,10.0,86,0.11,,OVC110,0.13,VWS V14.01,2013-07-13 14:32:00,
2013-07-13 09:37:00,62.8,58.9,30.00,ENE,66,3.0,10.0,87,0.12,,OVC110,0.14,VWS V14.01,2013-07-13 14:37:00,
2013-07-13 09:42:00,62.5,58.6,30.01,East,101,4.0,10.0,87,0.12,,OVC110,0.14,VWS V14.01,2013-07-13 14:42:00,
2013-07-13 09:47:00,62.5,58.9,30.01,East,96,7.0,10.0,88,0.12,,OVC110,0.14,VWS V14.01,2013-07-13 14:47:00,
2013-07-13 09:52:00,62.5,58.9,30.01,East,81,2.0,10.0,88,0.13,,OVC110,0.15,VWS V14.01,2013-07-13 14:52:00,
2013-07-13 09:57:00,62.3,59.0,30.00,East,93,5.0,11.0,89,0.13,,OVC110,0.15,VWS V14.01,2013-07-13 14:57:00,
2013-07-13 10:02:00,62.3,59.0,30.00,East,94,2.0,9.0,89,0.02,,-RA,0.15,VWS V14.01,2013-07-13 15:02:00,
2013-07-13 10:07:00,62.2,59.2,30.00,ESE,123,3.0,9.0,90,0.03,,RA,0.16,VWS V14.01,2013-07-13 15:07:00,
2013-07-13 10:12:00,62.1,59.1,30.01,East,87,1.0,9.0,90,0.03,,RA,0.16,VWS V14.01,2013-07-13 15:12:00,
2013-07-13 10:17:00,62.3,59.3,30.01,East,91,10.0,12.0,90,0.03,,RA,0.16,VWS V14.01,2013-07-13 15:17:00,
2013-07-13 10:22:00,62.6,59.0,30.00,East,81,3.0,14.0,88,0.03,,RA,0.16,VWS V14.01,2013-07-13 15:22:00,
2013-07-13 10:27:00,63.0,59.1,30.01,East,91,3.0,15.0,87,0.03,,RA,0.16,VWS V14.01,2013-07-13 15:27:00,
2013-07-13 10:32:00,63.1,59.2,30.01,East,82,7.0,10.0,87,0.03,,RA,0.16,VWS V14.01,2013-07-13 15:32:00,
2013-07-13 10:37:00,63.1,59.5,30.03,East,85,0.0,10.0,88,0.03,,RA,0.16,VWS V14.01,2013-07-13 15:37:00,
2013-07-13 10:42:00,62.8,59.2,30.05,NNE,25,1.0,10.0,88,0.03,,RA,0.16,VWS V14.01,2013-07-13 15:42:00,
2013-07-13 10:47:00,62.7,59.4,30.07,NE,46,4.0,11.0,89,0.03,,RA,0.16,VWS V14.01,2013-07-13 15:47:00,
2013-07-13 10:52:00,62.6,59.6,30.07,NE,42,1.0,11.0,90,0.04,,RA,0.17,VWS V14.01,2013-07-13 15:52:00,
2013-07-13 10:57:00,62.4,59.7,30.07,ENE,61,0.0,11.0,91,0.11,,,0.24,VWS V14.01,2013-07-13 15:57:00,
2013-07-13 11:02:00,62.1,59.8,30.08,NE,49,2.0,4.0,92,0.12,,,0.27,VWS V14.01,2013-07-13 16:02:00,
2013-07-13 11:07:00,61.9,59.9,30.07,ENE,76,1.0,4.0,93,0.17,,,0.32,VWS V14.01,2013-07-13 16:07:00,
2013-07-13 11:12:00,61.6,59.6,30.06,NE,56,3.0,5.0,93,0.23,,,0.38,VWS V14.01,2013-07-13 16:12:00,
2013-07-13 11:17:00,61.4,59.7,30.06,ENE,61,1.0,5.0,94,0.28,,,0.43,VWS V14.01,2013-07-13 16:17:00,
2013-07-13 11:22:00,61.4,59.7,30.06,ENE,66,3.0,7.0,94,0.30,,,0.45,VWS V14.01,2013-07-13 16:22:00,
2013-07-13 11:27:00,61.3,59.6,30.05,East,99,9.0,12.0,94,0.31,,,0.46,VWS V14.01,2013-07-13 16:27:00,
2013-07-13 11:32:00,61.4,59.7,30.04,ESE,110,10.0,11.0,94,0.30,,,0.46,VWS V14.01,2013-07-13 16:32:00,
2013-07-13 11:37:00,61.6,59.9,30.05,East,79,7.0,12.0,94,0.30,,,0.46,VWS V14.01,2013-07-13 16:37:00,
2013-07-13 11:42:00,61.6,59.9,30.04,ESE,105,7.0,12.0,94,0.30,,,0.46,VWS V14.01,2013-07-13 16:42:00,
2013-07-13 11:47:00,61.7,59.7,30.04,ENE,69,6.0,15.0,93,0.31,,,0.47,VWS V14.01,2013-07-13 16:47:00,
2013-07-13 11:52:00,61.7,59.7,30.04,East,98,7.0,15.0,93,0.31,,,0.47,VWS V14.01,2013-07-13 16:52:00,
2013-07-13 11:57:00,61.8,59.8,30.03,ESE,111,9.0,15.0,93,0.31,,,0.47,VWS V14.01,2013-07-13 16:57:00,
2013-07-13 12:02:00,62.1,59.8,30.04,East,98,8.0,14.0,92,0.21,,,0.47,VWS V14.01,2013-07-13 17:02:00,
2013-07-13 12:07:00,62.0,59.7,30.04,ENE,65,0.0,14.0,92,0.21,,,0.47,VWS V14.01,2013-07-13 17:07:00,
2013-07-13 12:12:00,62.0,60.0,30.07,NNW,342,6.0,14.0,93,0.21,,,0.47,VWS V14.01,2013-07-13 17:12:00,
2013-07-13 12:17:00,62.1,60.4,30.07,NNW,345,7.0,14.0,94,0.21,,,0.47,VWS V14.01,2013-07-13 17:17:00,
2013-07-13 12:22:00,62.3,60.6,30.06,NE,44,0.0,14.0,94,0.24,,,0.50,VWS V14.01,2013-07-13 17:22:00,
2013-07-13 12:27:00,62.2,60.2,30.05,NNW,339,3.0,14.0,93,0.25,,,0.51,VWS V14.01,2013-07-13 17:27:00,
2013-07-13 12:32:00,62.2,60.2,30.04,North,11,0.0,2.0,93,0.06,,,0.52,VWS V14.01,2013-07-13 17:32:00,
2013-07-13 12:37:00,62.2,60.2,30.03,East,101,1.0,2.0,93,0.06,,,0.52,VWS V14.01,2013-07-13 17:37:00,
2013-07-13 12:42:00,62.6,60.2,30.03,ESE,120,7.0,8.0,92,0.06,,,0.52,VWS V14.01,2013-07-13 17:42:00,
2013-07-13 12:47:00,63.4,60.1,30.01,ESE,111,13.0,13.0,89,0.06,,,0.52,VWS V14.01,2013-07-13 17:47:00,
2013-07-13 12:52:00,63.9,60.0,30.00,SE,129,8.0,13.0,87,0.06,,,0.52,VWS V14.01,2013-07-13 17:52:00,
2013-07-13 12:57:00,64.0,59.7,29.99,SSE,150,14.0,14.0,86,0.06,,,0.52,VWS V14.01,2013-07-13 17:57:00,
2013-07-13 13:02:00,64.0,59.7,29.98,SSE,152,11.0,16.0,86,0.05,,,0.52,VWS V14.01,2013-07-13 18:02:00,
2013-07-13 13:07:00,64.0,59.4,29.97,South,179,11.0,18.0,85,0.05,,,0.52,VWS V14.01,2013-07-13 18:07:00,
2013-07-13 13:12:00,64.1,59.5,29.97,SSE,161,11.0,18.0,85,0.05,,,0.52,VWS V14.01,2013-07-13 18:12:00,
2013-07-13 13:17:00,64.0,59.1,29.95,SE,146,12.0,18.0,84,0.05,,,0.52,VWS V14.01,2013-07-13 18:17:00,
2013-07-13 13:22:00,64.4,58.8,29.95,SE,133,19.0,21.0,82,0.05,,,0.52,VWS V14.01,2013-07-13 18:22:00,
2013-07-13 13:27:00,64.7,59.1,29.94,South,177,7.0,21.0,82,0.05,,,0.52,VWS V14.01,2013-07-13 18:27:00,
2013-07-13 13:32:00,65.0,59.0,29.94,SSW,201,10.0,16.0,81,0.00,,,0.52,VWS V14.01,2013-07-13 18:32:00,
2013-07-13 13:37:00,65.4,59.4,29.94,ESE,122,15.0,18.0,81,0.00,,,0.52,VWS V14.01,2013-07-13 18:37:00,
2013-07-13 13:42:00,65.7,59.7,29.94,SE,132,12.0,18.0,81,0.00,,,0.52,VWS V14.01,2013-07-13 18:42:00,
2013-07-13 13:47:00,66.0,59.7,29.94,SSW,204,8.0,18.0,80,0.00,,,0.52,VWS V14.01,2013-07-13 18:47:00,
2013-07-13 13:52:00,66.3,59.6,29.94,SSW,205,10.0,18.0,79,0.00,,CLR,0.52,VWS V14.01,2013-07-13 18:52:00,
2013-07-13 13:57:00,66.5,60.2,29.93,South,191,6.0,18.0,80,0.00,,CLR,0.52,VWS V14.01,2013-07-13 18:57:00,
2013-07-13 14:02:00,66.9,60.2,29.92,SSE,149,10.0,17.0,79,0.00,,CLR,0.52,VWS V14.01,2013-07-13 19:02:00,
2013-07-13 14:07:00,67.3,60.2,29.92,SSW,201,12.0,18.0,78,0.00,,CLR,0.52,VWS V14.01,2013-07-13 19:07:00,
2013-07-13 14:12:00,67.7,60.2,29.92,SE,127,12.0,20.0,77,0.00,,CLR,0.52,VWS V14.01,2013-07-13 19:12:00,
2013-07-13 14:17:00,68.1,60.3,29.92,SW,215,8.0,20.0,76,0.00,,CLR,0.52,VWS V14.01,2013-07-13 19:17:00,
2013-07-13 14:22:00,68.3,60.1,29.92,SSW,201,10.0,20.0,75,0.00,,CLR,0.52,VWS V14.01,2013-07-13 19:22:00,
2013-07-13 14:27:00,68.9,59.9,29.92,South,172,10.0,20.0,73,0.00,,CLR,0.52,VWS V14.01,2013-07-13 19:27:00,
2013-07-13 14:32:00,69.6,60.6,29.93,SSE,155,13.0,18.0,73,0.00,,CLR,0.52,VWS V14.01,2013-07-13 19:32:00,
2013-07-13 14:37:00,69.9,60.9,29.94,SSE,158,12.0,18.0,73,0.00,,CLR,0.52,VWS V14.01,2013-07-13 19:37:00,
2013-07-13 14:42:00,70.2,60.8,29.94,SSE,149,12.0,18.0,72,0.00,,CLR,0.52,VWS V14.01,2013-07-13 19:42:00,
2013-07-13 14:47:00,70.5,61.4,29.95,SSE,153,9.0,18.0,73,0.00,,CLR,0.52,VWS V14.01,2013-07-13 19:47:00,
2013-07-13 14:52:00,70.8,61.3,29.95,SSE,158,12.0,18.0,72,0.00,,CLR,0.52,VWS V14.01,2013-07-13 19:52:00,
2013-07-13 14:57:00,71.1,61.2,29.95,SE,145,7.0,18.0,71,0.00,,CLR,0.52,VWS V14.01,2013-07-13 19:57:00,
2013-07-13 15:02:00,71.5,61.6,29.94,SE,138,7.0,16.0,71,0.00,,CLR,0.52,VWS V14.01,2013-07-13 20:02:00,
2013-07-13 15:07:00,72.1,62.6,29.94,SSW,203,9.0,16.0,72,0.00,,CLR,0.52,VWS V14.01,2013-07-13 20:07:00,
2013-07-13 15:12:00,72.8,62.0,29.95,SE,138,9.0,16.0,69,0.00,,CLR,0.52,VWS V14.01,2013-07-13 20:12:00,
2013-07-13 15:17:00,73.1,62.7,29.96,SE,145,13.0,16.0,70,0.00,,CLR,0.52,VWS V14.01,2013-07-13 20:17:00,
2013-07-13 15:22:00,73.3,62.5,29.97,ESE,122,13.0,16.0,69,0.00,,CLR,0.52,VWS V14.01,2013-07-13 20:22:00,
2013-07-13 15:27:00,73.3,63.3,29.96,ESE,110,11.0,16.0,71,0.00,,CLR,0.52,VWS V14.01,2013-07-13 20:27:00,
2013-07-13 15:32:00,73.3,62.9,29.96,SE,145,9.0,13.0,70,0.00,,CLR,0.52,VWS V14.01,2013-07-13 20:32:00,
2013-07-13 15:37:00,73.1,63.9,29.96,ESE,120,10.0,15.0,73,0.00,,CLR,0.52,VWS V14.01,2013-07-13 20:37:00,
2013-07-13 15:42:00,72.7,63.5,29.97,SE,125,12.0,16.0,73,0.00,,CLR,0.52,VWS V14.01,2013-07-13 20:42:00,
2013-07-13 15:47:00,72.3,63.2,29.97,ESE,109,9.0,16.0,73,0.00,,CLR,0.52,VWS V14.01,2013-07-13 20:47:00,
2013-07-13 15:52:00,71.8,63.5,29.97,East,101,15.0,16.0,75,0.00,,CLR,0.52,VWS V14.01,2013-07-13 20:52:00,
2013-07-13 15:57:00,71.5,63.9,29.97,ESE,104,13.0,16.0,77,0.00,,CLR,0.52,VWS V14.01,2013-07-13 20:57:00,
2013-07-13 16:02:00,71.5,62.8,29.97,SE,138,10.0,12.0,74,0.00,,CLR,0.52,VWS V14.01,2013-07-13 21:02:00,
2013-07-13 16:07:00,71.6,62.9,29.96,ESE,123,11.0,14.0,74,0.00,,CLR,0.52,VWS V14.01,2013-07-13 21:07:00,
2013-07-13 16:12:00,71.9,63.5,29.97,ESE,112,12.0,14.0,75,0.00,,CLR,0.52,VWS V14.01,2013-07-13 21:12:00,
2013-07-13 16:17:00,72.2,63.1,29.97,SE,145,7.0,14.0,73,0.00,,CLR,0.52,VWS V14.01,2013-07-13 21:17:00,
2013-07-13 16:22:00,72.4,63.3,29.97,SE,128,12.0,14.0,73,0.00,,CLR,0.52,VWS V14.01,2013-07-13 21:22:00,
2013-07-13 16:27:00,72.7,63.5,29.97,SE,134,10.0,14.0,73,0.00,,CLR,0.52,VWS V14.01,2013-07-13 21:27:00,
2013-07-13 16:32:00,73.0,64.6,29.97,ESE,115,9.0,10.0,75,0.00,,CLR,0.52,VWS V14.01,2013-07-13 21:32:00,
2013-07-13 16:37:00,73.1,63.9,29.97,ESE,118,9.0,14.0,73,0.00,,CLR,0.52,VWS V14.01,2013-07-13 21:37:00,
2013-07-13 16:42:00,73.1,64.7,29.97,ESE,117,10.0,14.0,75,0.00,,CLR,0.52,VWS V14.01,2013-07-13 21:42:00,
2013-07-13 16:47:00,73.1,63.9,29.97,ESE,111,9.0,16.0,73,0.00,,CLR,0.52,VWS V14.01,2013-07-13 21:47:00,
2013-07-13 16:52:00,73.1,64.3,29.97,ESE,123,10.0,16.0,74,0.00,,CLR,0.52,VWS V14.01,2013-07-13 21:52:00,
2013-07-13 16:57:00,73.0,63.8,29.97,ESE,115,12.0,16.0,73,0.00,,CLR,0.52,VWS V14.01,2013-07-13 21:57:00,
2013-07-13 17:02:00,72.9,63.8,29.97,ESE,108,15.0,15.0,73,0.00,,CLR,0.52,VWS V14.01,2013-07-13 22:02:00,
2013-07-13 17:07:00,72.8,64.0,29.97,SE,134,12.0,17.0,74,0.00,,CLR,0.52,VWS V14.01,2013-07-13 22:07:00,
2013-07-13 17:12:00,72.6,63.8,29.97,SE,125,12.0,17.0,74,0.00,,CLR,0.52,VWS V14.01,2013-07-13 22:12:00,
2013-07-13 17:17:00,72.5,63.8,29.97,SSE,148,11.0,17.0,74,0.00,,CLR,0.52,VWS V14.01,2013-07-13 22:17:00,
2013-07-13 17:22:00,72.4,64.0,29.97,SE,129,12.0,17.0,75,0.00,,CLR,0.52,VWS V14.01,2013-07-13 22:22:00,
2013-07-13 17:27:00,72.3,64.3,29.97,SSE,153,10.0,17.0,76,0.00,,CLR,0.52,VWS V14.01,2013-07-13 22:27:00,
2013-07-13 17:32:00,72.3,64.3,29.97,ESE,114,10.0,14.0,76,0.00,,CLR,0.52,VWS V14.01,2013-07-13 22:32:00,
2013-07-13 17:37:00,72.0,63.7,29.98,ESE,114,13.0,15.0,75,0.00,,CLR,0.52,VWS V14.01,2013-07-13 22:37:00,
2013-07-13 17:42:00,72.1,64.5,29.98,ESE,109,11.0,17.0,77,0.00,,CLR,0.52,VWS V14.01,2013-07-13 22:42:00,
2013-07-13 17:47:00,71.9,63.9,29.98,SE,131,10.0,17.0,76,0.00,,CLR,0.52,VWS V14.01,2013-07-13 22:47:00,
2013-07-13 17:52:00,71.9,64.7,29.98,ESE,105,8.0,17.0,78,0.00,,CLR,0.52,VWS V14.01,2013-07-13 22:52:00,
2013-07-13 17:57:00,71.8,64.9,29.98,ESE,108,10.0,17.0,79,0.00,,CLR,0.52,VWS V14.01,2013-07-13 22:57:00,
2013-07-13 18:02:00,71.6,64.8,29.98,ESE,109,12.0,12.0,79,0.00,,BKN075,0.52,VWS V14.01,2013-07-13 23:02:00,
2013-07-13 18:07:00,71.4,64.6,29.98,ESE,103,10.0,14.0,79,0.00,,BKN075,0.52,VWS V14.01,2013-07-13 23:07:00,
2013-07-13 18:12:00,71.2,64.0,29.98,ESE,118,9.0,16.0,78,0.00,,BKN075,0.52,VWS V14.01,2013-07-13 23:12:00,
2013-07-13 18:17:00,71.1,64.3,29.98,ESE,104,14.0,16.0,79,0.00,,BKN075,0.52,VWS V14.01,2013-07-13 23:17:00,
2013-07-13 18:22:00,71.1,64.6,29.98,ESE,114,11.0,16.0,80,0.00,,BKN075,0.52,VWS V14.01,2013-07-13 23:22:00,
2013-07-13 18:27:00,71.2,64.4,29.98,East,98,12.0,16.0,79,0.00,,BKN075,0.52,VWS V14.01,2013-07-13 23:27:00,
2013-07-13 18:32:00,71.1,64.3,29.98,ESE,121,11.0,15.0,79,0.00,,BKN075,0.52,VWS V14.01,2013-07-13 23:32:00,
2013-07-13 18:37:00,71.0,64.5,29.98,SE,125,12.0,16.0,80,0.00,,BKN075,0.52,VWS V14.01,2013-07-13 23:37:00,
2013-07-13 18:42:00,70.9,64.4,29.98,ESE,118,13.0,17.0,80,0.00,,BKN075,0.52,VWS V14.01,2013-07-13 23:42:00,
2013-07-13 18:47:00,70.9,64.4,29.98,ESE,115,11.0,18.0,80,0.00,,BKN075,0.52,VWS V14.01,2013-07-13 23:47:00,
2013-07-13 18:52:00,70.8,64.0,29.98,SE,126,13.0,18.0,79,0.00,,BKN075,0.52,VWS V14.01,2013-07-13 23:52:00,
2013-07-13 18:57:00,70.8,64.0,29.98,ESE,108,15.0,18.0,79,0.00,,SCT080,0.52,VWS V14.01,2013-07-13 23:57:00,
2013-07-13 19:02:00,70.7,63.9,29.98,ESE,104,12.0,16.0,79,0.00,,SCT080,0.52,VWS V14.01,2013-07-14 00:02:00,
2013-07-13 19:07:00,70.6,64.1,29.98,ESE,118,14.0,16.0,80,0.00,,SCT080,0.52,VWS V14.01,2013-07-14 00:07:00,
2013-07-13 19:12:00,70.7,64.2,29.98,SE,126,9.0,16.0,80,0.00,,SCT080,0.52,VWS V14.01,2013-07-14 00:12:00,
2013-07-13 19:17:00,70.8,64.0,29.98,ESE,108,14.0,20.0,79,0.00,,SCT080,0.52,VWS V14.01,2013-07-14 00:17:00,
2013-07-13 19:22:00,70.6,64.1,29.98,ESE,123,12.0,20.0,80,0.00,,SCT080,0.52,VWS V14.01,2013-07-14 00:22:00,
2013-07-13 19:27:00,70.5,64.0,29.98,ESE,108,14.0,20.0,80,0.00,,SCT080,0.52,VWS V14.01,2013-07-14 00:27:00,
2013-07-13 19:32:00,70.4,63.6,29.98,ESE,106,12.0,19.0,79,0.00,,SCT080,0.52,VWS V14.01,2013-07-14 00:32:00,
2013-07-13 19:37:00,70.2,63.8,29.98,ESE,123,13.0,19.0,80,0.00,,SCT080,0.52,VWS V14.01,2013-07-14 00:37:00,
2013-07-13 19:42:00,70.1,63.3,29.98,SE,134,12.0,19.0,79,0.00,,SCT080,0.52,VWS V14.01,2013-07-14 00:42:00,
2013-07-13 19:47:00,70.0,63.5,29.98,ESE,113,12.0,19.0,80,0.00,,SCT080,0.52,VWS V14.01,2013-07-14 00:47:00,
2013-07-13 19:52:00,69.9,63.5,29.98,ESE,121,11.0,19.0,80,0.00,,SCT080,0.52,VWS V14.01,2013-07-14 00:52:00,
2013-07-13 19:57:00,69.8,63.4,29.98,ESE,123,12.0,20.0,80,0.00,,SCT080,0.52,VWS V14.01,2013-07-14 00:57:00,
2013-07-13 20:02:00,69.7,63.3,29.97,ESE,110,14.0,18.0,80,0.00,,CLR,0.52,VWS V14.01,2013-07-14 01:02:00,
2013-07-13 20:07:00,69.6,63.5,29.98,ESE,121,12.0,18.0,81,0.00,,CLR,0.52,VWS V14.01,2013-07-14 01:07:00,
2013-07-13 20:12:00,69.4,63.3,29.97,SE,145,11.0,18.0,81,0.00,,CLR,0.52,VWS V14.01,2013-07-14 01:12:00,
2013-07-13 20:17:00,69.3,63.2,29.97,SE,134,13.0,18.0,81,0.00,,CLR,0.52,VWS V14.01,2013-07-14 01:17:00,
2013-07-13 20:22:00,69.2,63.1,29.98,SE,129,12.0,18.0,81,0.00,,CLR,0.52,VWS V14.01,2013-07-14 01:22:00,
2013-07-13 20:27:00,69.1,63.4,29.98,ESE,118,10.0,18.0,82,0.00,,CLR,0.52,VWS V14.01,2013-07-14 01:27:00,
2013-07-13 20:32:00,69.0,63.3,29.98,SE,129,14.0,16.0,82,0.00,,CLR,0.52,VWS V14.01,2013-07-14 01:32:00,
2013-07-13 20:37:00,68.9,62.8,29.98,ESE,118,12.0,17.0,81,0.00,,CLR,0.52,VWS V14.01,2013-07-14 01:37:00,
2013-07-13 20:42:00,68.8,63.1,29.98,ESE,122,10.0,17.0,82,0.00,,CLR,0.52,VWS V14.01,2013-07-14 01:42:00,
2013-07-13 20:47:00,68.8,62.7,29.98,ESE,120,12.0,17.0,81,0.00,,CLR,0.52,VWS V14.01,2013-07-14 01:47:00,
2013-07-13 20:52:00,68.7,62.6,29.99,SE,126,11.0,17.0,81,0.00,,CLR,0.52,VWS V14.01,2013-07-14 01:52:00,
2013-07-13 20:57:00,68.6,62.5,29.99,ESE,110,12.0,17.0,81,0.00,,CLR,0.52,VWS V14.01,2013-07-14 01:57:00,
2013-07-13 21:02:00,68.5,62.5,29.99,ESE,105,10.0,13.0,81,0.00,,CLR,0.52,VWS V14.01,2013-07-14 02:02:00,
2013-07-13 21:07:00,68.4,62.7,29.99,ESE,112,9.0,15.0,82,0.00,,CLR,0.52,VWS V14.01,2013-07-14 02:07:00,
2013-07-13 21:12:00,68.3,62.6,29.99,SE,133,10.0,15.0,82,0.00,,CLR,0.52,VWS V14.01,2013-07-14 02:12:00,
2013-07-13 21:17:00,68.2,62.5,29.99,SE,126,11.0,15.0,82,0.00,,CLR,0.52,VWS V14.01,2013-07-14 02:17:00,
2013-07-13 21:22:00,68.0,62.7,29.99,SE,128,8.0,15.0,83,0.00,,CLR,0.52,VWS V14.01,2013-07-14 02:22:00,
2013-07-13 21:27:00,67.9,62.5,29.99,ESE,109,9.0,15.0,83,0.00,,CLR,0.52,VWS V14.01,2013-07-14 02:27:00,
2013-07-13 21:32:00,67.7,62.7,29.99,SE,126,9.0,12.0,84,0.00,,CLR,0.52,VWS V14.01,2013-07-14 02:32:00,
2013-07-13 21:37:00,67.5,62.5,30.00,SE,128,9.0,12.0,84,0.00,,CLR,0.52,VWS V14.01,2013-07-14 02:37:00,
2013-07-13 21:42:00,67.4,62.7,30.00,SE,134,8.0,12.0,85,0.00,,CLR,0.52,VWS V14.01,2013-07-14 02:42:00,
2013-07-13 21:47:00,67.2,62.5,29.99,ESE,117,9.0,12.0,85,0.00,,CLR,0.52,VWS V14.01,2013-07-14 02:47:00,
2013-07-13 21:52:00,67.0,62.7,29.99,ESE,120,10.0,12.0,86,0.00,,CLR,0.52,VWS V14.01,2013-07-14 02:52:00,
2013-07-13 21:57:00,66.8,62.5,30.00,SE,128,7.0,12.0,86,0.00,,CLR,0.52,VWS V14.01,2013-07-14 02:57:00,
2013-07-13 22:02:00,66.6,62.6,30.00,SE,131,7.0,11.0,87,0.00,,CLR,0.52,VWS V14.01,2013-07-14 03:02:00,
2013-07-13 22:07:00,66.5,62.5,30.00,SE,125,8.0,11.0,87,0.00,,CLR,0.52,VWS V14.01,2013-07-14 03:07:00,
2013-07-13 22:12:00,66.4,62.4,30.00,SE,135,6.0,11.0,87,0.00,,CLR,0.52,VWS V14.01,2013-07-14 03:12:00,
2013-07-13 22:17:00,66.3,62.6,30.00,SE,132,8.0,11.0,88,0.00,,CLR,0.52,VWS V14.01,2013-07-14 03:17:00,
2013-07-13 22:22:00,66.2,62.5,30.00,ESE,113,8.0,11.0,88,0.00,,CLR,0.52,VWS V14.01,2013-07-14 03:22:00,
2013-07-13 22:27:00,66.1,62.5,30.00,ESE,120,5.0,11.0,88,0.00,,CLR,0.52,VWS V14.01,2013-07-14 03:27:00,
2013-07-13 22:32:00,66.0,62.7,30.00,SE,128,7.0,8.0,89,0.00,,CLR,0.52,VWS V14.01,2013-07-14 03:32:00,
2013-07-13 22:37:00,65.9,62.6,30.00,ESE,116,5.0,9.0,89,0.00,,CLR,0.52,VWS V14.01,2013-07-14 03:37:00,
2013-07-13 22:42:00,65.8,62.5,30.00,SSE,149,8.0,9.0,89,0.00,,CLR,0.52,VWS V14.01,2013-07-14 03:42:00,
2013-07-13 22:47:00,65.8,62.5,30.00,SE,125,6.0,9.0,89,0.00,,CLR,0.52,VWS V14.01,2013-07-14 03:47:00,
2013-07-13 22:52:00,65.8,62.5,30.01,SE,131,6.0,11.0,89,0.00,,CLR,0.52,VWS V14.01,2013-07-14 03:52:00,
2013-07-13 22:57:00,65.7,62.7,30.00,ESE,113,8.0,11.0,90,0.00,,CLR,0.52,VWS V14.01,2013-07-14 03:57:00,
2013-07-13 23:01:00,65.6,62.6,30.00,SE,131,8.0,8.0,90,0.00,,CLR,0.52,VWS V14.01,2013-07-14 04:01:00,
2013-07-13 23:06:00,65.5,62.8,30.00,SE,125,6.0,9.0,91,0.00,,CLR,0.52,VWS V14.01,2013-07-14 04:06:00,
2013-07-13 23:11:00,65.5,62.8,30.00,ESE,120,8.0,10.0,91,0.00,,CLR,0.52,VWS V14.01,2013-07-14 04:11:00,
2013-07-13 23:16:00,65.4,62.7,30.00,SE,135,6.0,10.0,91,0.00,,CLR,0.52,VWS V14.01,2013-07-14 04:16:00,
2013-07-13 23:21:00,65.4,62.7,30.00,ESE,119,7.0,10.0,91,0.00,,CLR,0.52,VWS V14.01,2013-07-14 04:21:00,
2013-07-13 23:26:00,65.4,62.7,30.01,SE,145,7.0,10.0,91,0.00,,CLR,0.52,VWS V14.01,2013-07-14 04:26:00,
2013-07-13 23:31:00,65.5,63.1,30.01,SE,128,5.0,8.0,92,0.00,,CLR,0.52,VWS V14.01,2013-07-14 04:31:00,
2013-07-13 23:36:00,65.4,63.0,30.01,ESE,105,4.0,8.0,92,0.00,,CLR,0.52,VWS V14.01,2013-07-14 04:36:00,
2013-07-13 23:41:00,65.5,63.1,30.01,SE,125,4.0,8.0,92,0.00,,CLR,0.52,VWS V14.01,2013-07-14 04:41:00,
2013-07-13 23:46:00,65.4,63.0,30.02,ESE,123,3.0,8.0,92,0.00,,CLR,0.52,VWS V14.01,2013-07-14 04:46:00,
2013-07-13 23:51:00,65.3,62.9,30.02,ESE,121,4.0,8.0,92,0.00,,CLR,0.52,VWS V14.01,2013-07-14 04:51:00,
2013-07-13 23:56:00,65.3,62.9,30.02,SE,125,5.0,8.0,92,0.00,,CLR,0.52,VWS V14.01,2013-07-14 04:56:00,